This demonstration page uses our WeatherBlox Daily Observations layout. Learn more.

41.55636, -103.73856

Hourly Observations for October 29, 2020

Temp ( °F °C ) Dew Point ( °F °C ) Humidity (%) Winds ( mph kmh ) Pressure ( in mb ) Visibility ( mi km ) Precip ( " mm )
12:58 am 00:58 Cloudy 37 2.7 31 -0.8 78 78 WSW 5 7 30.26 1025 10 16.0934 0 0
1:58 am 01:58 Cloudy 36 2.2 31 -0.6 82 82 SSW 7 11 30.24 1024 10 16.0934 0 0
2:58 am 02:58 Mostly Cloudy 36 2.3 31 -0.7 81 81 SW 8 13 30.23 1024 10 16.0934 0 0
3:58 am 03:58 Mostly Clear 36 2 30 -0.9 81 81 W 5 7 30.22 1024 10 16.0934 0 0
4:58 am 04:58 Clear 31 -0.7 25 -3.8 80 80 SW 8 13 30.21 1023 10 16.0934 0 0
5:58 am 05:58 Clear 31 -0.8 27 -3 85 85 W 3 6 30.22 1024 10 16.0934 0 0
6:58 am 06:58 Clear 33 0.3 25 -4 73 73 SW 14 22 30.21 1023 10 16.0934 0 0
7:58 am 07:58 Sunny 36 2.2 26 -3.1 68 68 SSW 12 19 30.19 1022 10 16.0934 0 0
8:59 am 08:59 Sunny 41 4.9 28 -2 61 61 WSW 15 24 30.21 1023 10 16.0934 0 0
9:58 am 09:58 Sunny 41 5.1 29 -1.7 62 62 WSW 15 24 30.21 1023 10 16.0934 0 0
10:58 am 10:58 Sunny 42 5.5 30 -1.3 62 62 SW 16 26 30.2 1023 10 16.0934 0 0
11:58 am 11:58 Sunny 43 6.3 31 -0.5 62 62 SW 14 22 30.19 1022 10 16.0934 0 0
12:58 pm 12:58 Sunny 44 6.6 32 -0.2 62 62 W 10 17 30.16 1021 10 16.0934 0 0
1:58 pm 13:58 Sunny 48 8.9 33 0.6 56 56 WSW 7 11 30.12 1020 10 16.0934 0 0
2:58 pm 14:58 Sunny 49 9.4 32 0.1 53 53 W 13 20 30.11 1020 10 16.0934 0 0
3:58 pm 15:58 Sunny 50 9.8 33 0.6 53 53 WNW 10 17 30.13 1020 10 16.0934 0 0
4:58 pm 16:58 Sunny 49 9.6 33 0.6 54 54 W 9 15 30.14 1021 10 16.0934 0 0
5:58 pm 17:58 Clear 47 8.1 31 -0.6 55 55 WSW 7 11 30.15 1021 10 16.0934 0 0
6:58 pm 18:58 Clear 43 6.1 30 -0.9 61 61 WSW 8 13 30.18 1022 10 16.0934 0 0
7:58 pm 19:58 Clear 41 5.2 30 -1.3 63 63 WSW 8 13 30.18 1022 10 16.0934 0 0
8:58 pm 20:58 Clear 43 6.2 30 -1.3 59 59 W 8 13 30.17 1022 10 16.0934 0 0
9:58 pm 21:58 Clear 42 5.6 30 -1.1 62 62 W 12 19 30.17 1022 10 16.0934 0 0
10:58 pm 22:58 Clear 42 5.7 30 -1.3 61 61 NW 6 9 30.19 1022 10 16.0934 0 0
11:58 pm 23:58 Clear 42 5.8 29 -1.6 59 59 W 3 6 30.2 1023 10 16.0934 0 0

Powered by AerisWeather